Weather in Maloye Okunevo

Russia / Kurgan Oblast     55°28′10″N   63°34′41″E
temp.,
°C
wind,
m/s
gust,
m/s
humid.,
%
clouds,
%
prec.,
mm/h
press.,
hPa
HPBL,
m
28 february, sun
sun2823:00−14se61293100 1.1 1016644
02:00−14se6119499 0.4 1014510
05:00−15ese5995100 0.9 1013408
08:00−17e5109599 0.1 1011314
11:00−15e589498 0.3 1010330
14:00−12e5894100 0.2 1009416
17:00−12ene6993100 0.4 1008459
20:00−14ne5994100 0.3 1009350
1 march, mon
mon123:00−15ne599598 0.3 1010311
02:00−17nne5895100 0.2 1011309
05:00−19nne479692 0.3 1013233
08:00−20nne479788 0.1 1014249
11:00−18n359492 0.1 1016271
14:00−16n3490100 0.0 1016369
17:00−15nnw2392100 0.1 1017311
20:00−18nnw119697 0.0 101820
2 march, tue
tue223:00−18w119788 0.1 101820
02:00−20wsw229977 0.0 101720
05:00−19sw229880 0.1 101621
08:00−20sw239884 0.0 101528
11:00−16sw349479 0.0 1014217
14:00−12ssw359193 0.0 1012391
17:00−13s479397 0.0 1011344
20:00−17s499666 0.0 1009184
3 march, wed
wed323:00−15s599475 0.0 1007250
02:00−14s51094100 0.0 1005280
05:00−12s51193100 0.1 1005399
08:00−11ssw61193100 0.1 1004509
11:00−9ssw61191100 0.2 1003555
14:00−5ssw61090100 0.1 1002727
17:00−3ssw5992100 0.2 1001771
20:00−3ssw4995100 0.1 1000328
4 march, thu
thu423:00−6ssw489599 0.1 1000141
02:00−8sw349691 0.0 100055
05:00−10wsw349466 0.0 100038
08:00−12wnw339759 0.0 100037
11:00−8w359350 0.0 1000194
14:00−5w46920 0.0 1001344
17:00−4wnw588843 0.1 1002680
20:00−8w5108595 0.0 1003258